Cloud_Cover
100 100 100 12 88 98 32 100 100 94 51 100 89 100 100 100 100 40 5 4 3 1 2 2 5 100 100 72 79 100 100 100 100 100 100 96 100 97 58 11 36 62 100 100
100 100 85 42 49 100 100 68 63 88 10 15 5 57 100 100 83 65 27 1 0 0 0 1 12 3 47 52 100 80 98 100 100 100 100 100 100 100 98 91 82 97 37 84
100 100 100 97 92 66 70 56 39 66 24 96 3 9 54 99 8 62 73 2 0 0 0 0 0 1 92 13 32 100 99 89 47 94 100 100 98 100 88 58 41 20 5 5
56 21 58 100 100 100 100 100 15 99 25 0 1 37 48 95 42 18 3 0 0 0 0 0 0 0 2 87 2 38 1 7 30 32 26 58 79 11 5 4 8 52 50 100
0 0 4 49 99 100 100 94 64 21 3 19 5 9 91 100 2 5 5 0 1 85 100 99 62 5 5 5 74 41 58 2 2 0 1 3 5 5 4 24 8 100 97 100
0 0 0 0 0 0 0 5 92 100 100 5 89 94 61 62 99 57 40 11 31 44 93 51 84 6 4 7 0 0 0 0 0 0 0 0 3 0 0 4 28 51 100 100
0 0 0 0 0 0 3 5 23 13 84 100 94 83 100 98 72 100 93 98 78 69 96 92 4 2 0 0 0 0 0 0 0 0 0 0 0 3 5 1 8 78 100 100
0 0 0 0 0 0 0 2 21 100 100 39 22 86 100 100 100 29 100 100 92 100 100 100 94 66 68 10 0 0 0 0 0 0 0 0 0 0 0 5 3 43 100 100
0 2 1 0 1 10 0 100 98 100 5 8 100 7 98 100 68 63 100 67 84 100 100 100 99 100 100 100 20 16 2 3 3 0 0 0 0 0 0 1 4 92 94 100
1 39 88 19 24 73 0 8 40 93 15 19 28 52 12 4 97 59 100 90 100 100 100 100 100 100 100 100 80 100 4 1 7 1 2 22 5 4 4 13 50 87 98 42
0 24 38 11 16 51 60 96 54 3 100 99 14 21 0 0 3 56 43 99 100 100 100 100 100 100 100 85 35 74 67 11 99 6 5 1 2 0 0 9 99 96 45 100
5 4 3 28 26 28 100 68 0 0 58 83 15 5 0 2 97 100 81 75 100 100 100 100 100 85 100 100 85 8 4 8 62 4 0 0 0 0 0 0 9 65 35 65
2 33 4 4 0 95 57 64 47 0 0 5 0 0 0 95 100 100 89 100 100 100 100 100 100 100 100 100 100 13 11 25 4 0 0 0 0 0 0 0 0 0 20 5
68 0 1 0 3 34 100 68 100 99 28 0 0 0 0 100 100 100 100 100 100 100 100 100 100 100 100 94 84 58 60 36 0 0 0 0 0 1 0 0 0 2 0 0
5 2 1 0 0 1 40 34 34 8 1 0 0 0 0 90 100 100 100 99 96 100 97 34 4 31 0 1 81 100 6 1 0 0 0 4 5 5 5 25 16 5 0 0
62 3 0 0 0 0 18 46 1 20 7 0 0 0 0 16 100 100 100 100 96 81 97 5 0 3 8 5 4 5 8 5 5 5 5 1 1 45 2 9 36 40 8 14
4 0 0 0 0 4 6 8 64 15 8 21 1 0 0 25 100 8 100 36 75 96 99 85 100 76 93 13 14 5 2 0 5 11 96 98 100 100 100 100 45 5 42 76
6 5 0 0 0 0 0 0 3 39 69 26 82 9 0 33 100 99 100 100 100 100 100 100 100 100 100 100 83 100 5 0 30 99 75 30 100 100 100 100 100 92 18 87
59 63 85 0 0 0 0 0 0 5 1 0 0 0 0 0 100 100 100 100 100 100 100 100 41 91 100 100 45 100 0 0 4 20 100 52 8 18 14 93 100 96 96 98
55 99 22 100 91 0 0 0 0 0 1 24 30 0 0 0 2 100 100 100 100 100 100 100 100 100 100 100 14 0 0 3 5 1 69 96 100 32 8 1 2 6 39 97
0 0 1 84 89 1 0 0 0 21 1 0 19 0 0 0 0 0 50 100 100 100 100 100 100 100 99 0 3 0 0 0 0 5 5 5 5 5 5 6 5 2 4 36
0 0 0 12 56 4 0 0 0 1 2 0 0 0 0 0 0 0 0 0 53 100 100 100 100 98 2 0 0 0 0 0 0 0 0 0 0 0 0 0 2 5 5 5
0 0 0 0 0 0 0 0 1 15 1 5 0 0 0 0 0 0 0 0 0 2 23 12 10 0 0 0 0 0 0 0 0 0 0 0 0 0 0 0 0 0 0 1
1 0 0 0 0 0 1 0 0 1 24 87 7 5 3 0 0 0 0 0 0 0 0 0 0 1 3 1 0 0 0 5 1 2 0 0 0 5 2 0 0 0 0 0
1 35 0 0 0 0 0 4 2 2 1 5 5 79 52 3 0 0 0 0 0 0 0 0 0 0 0 2 5 5 5 5 5 5 2 0 0 0 2 0 0 0 0 0
5 5 5 0 0 0 0 0 91 86 52 5 79 99 100 3 0 0 0 0 0 0 0 0 0 0 1 0 5 2 5 46 35 5 5 2 1 0 0 0 0 0 0 0